TimeEDT,TemperatureF,Dew PointF,Humidity,Sea Level PressureIn,VisibilityMPH,Wind Direction,Wind SpeedMPH,Gust SpeedMPH,PrecipitationIn,Events,Conditions,WindDirDegrees,DateUTC
12:15 AM,42.4,27.5,56,29.95,10.0,South,10.4,-,N/A,,Scattered Clouds,170,2013-03-12 04:15:00
12:55 AM,42.4,28.2,57,29.95,10.0,South,10.4,18.4,N/A,,Scattered Clouds,170,2013-03-12 04:55:00
1:15 AM,42.4,28.6,58,29.95,10.0,SSE,15.0,19.6,N/A,,Mostly Cloudy,160,2013-03-12 05:15:00
1:35 AM,41.9,29.1,61,29.97,10.0,SSE,15.0,21.9,N/A,,Overcast,160,2013-03-12 05:35:00
1:55 AM,41.9,29.8,62,29.97,10.0,SSE,12.7,-,N/A,,Overcast,160,2013-03-12 05:55:00
2:15 AM,41.4,30.7,66,29.97,10.0,SSE,10.4,-,N/A,,Overcast,160,2013-03-12 06:15:00
2:35 AM,41.2,31.1,67,29.96,10.0,SSE,10.4,-,N/A,,Overcast,160,2013-03-12 06:35:00
2:55 AM,41.0,32.0,70,29.95,10.0,SSE,10.4,-,N/A,,Mostly Cloudy,160,2013-03-12 06:55:00
3:15 AM,41.0,32.0,70,29.95,10.0,SSE,11.5,18.4,N/A,,Mostly Cloudy,160,2013-03-12 07:15:00
3:55 AM,41.0,32.9,73,29.93,10.0,SSE,9.2,-,N/A,,Overcast,160,2013-03-12 07:55:00
4:15 AM,41.4,33.1,72,29.94,10.0,SSE,12.7,17.3,N/A,,Overcast,160,2013-03-12 08:15:00
4:35 AM,41.5,33.6,73,29.93,10.0,SSE,11.5,17.3,N/A,,Overcast,160,2013-03-12 08:35:00
5:15 AM,41.9,34.0,73,29.92,10.0,SSE,11.5,20.7,N/A,,Overcast,160,2013-03-12 09:15:00
5:35 AM,41.2,34.9,78,29.91,10.0,SSE,13.8,-,N/A,Rain,Rain,160,2013-03-12 09:35:00
5:55 AM,40.3,35.8,84,29.91,7.0,South,10.4,-,N/A,Rain,Light Rain,170,2013-03-12 09:55:00
6:15 AM,40.5,36.5,86,29.91,7.0,SSE,11.5,16.1,N/A,Rain,Light Rain,160,2013-03-12 10:15:00
6:35 AM,40.1,36.9,88,29.91,7.0,SSE,11.5,17.3,N/A,Rain,Rain,160,2013-03-12 10:35:00
6:55 AM,40.5,37.4,89,29.90,10.0,SSE,13.8,-,N/A,Rain,Light Rain,160,2013-03-12 10:55:00
7:15 AM,40.8,37.4,88,29.89,10.0,South,11.5,18.4,N/A,Rain,Light Rain,170,2013-03-12 11:15:00
7:35 AM,41.2,37.6,87,29.89,10.0,South,9.2,-,N/A,Rain,Rain,180,2013-03-12 11:35:00
7:55 AM,41.5,37.9,87,29.89,10.0,South,9.2,-,N/A,,Drizzle,170,2013-03-12 11:55:00
8:15 AM,41.9,38.3,87,29.88,10.0,South,11.5,-,N/A,Rain,Rain,170,2013-03-12 12:15:00
8:35 AM,42.1,38.7,88,29.88,10.0,South,6.9,10.4,N/A,Rain,Rain,170,2013-03-12 12:35:00
8:55 AM,42.4,39.0,88,29.88,10.0,South,11.5,-,N/A,Rain,Rain,170,2013-03-12 12:55:00
9:15 AM,43.0,39.4,87,29.88,10.0,South,12.7,19.6,N/A,Rain,Light Rain,170,2013-03-12 13:15:00
9:35 AM,43.2,39.4,86,29.87,10.0,SSE,12.7,20.7,N/A,,Overcast,160,2013-03-12 13:35:00
9:55 AM,43.5,39.6,86,29.87,10.0,SSE,12.7,16.1,N/A,,Light Drizzle,160,2013-03-12 13:55:00
10:15 AM,44.2,40.1,85,29.87,10.0,SSE,10.4,20.7,N/A,,Light Drizzle,160,2013-03-12 14:15:00
10:35 AM,44.1,40.3,87,29.87,10.0,SSE,9.2,-,N/A,Rain,Light Rain,160,2013-03-12 14:35:00
10:55 AM,44.1,40.5,87,29.86,10.0,SSE,12.7,-,N/A,,Drizzle,160,2013-03-12 14:55:00
11:15 AM,44.1,40.8,88,29.86,10.0,SSE,11.5,17.3,N/A,,Drizzle,160,2013-03-12 15:15:00
11:35 AM,44.4,41.0,88,29.85,10.0,SSE,12.7,-,N/A,,Drizzle,160,2013-03-12 15:35:00
11:55 AM,44.6,41.0,87,29.84,10.0,SSE,10.4,17.3,N/A,Rain,Light Rain,160,2013-03-12 15:55:00
12:15 PM,44.6,41.0,87,29.84,10.0,SSE,12.7,19.6,N/A,Rain,Light Rain,160,2013-03-12 16:15:00
12:35 PM,44.8,41.2,87,29.84,10.0,SSE,11.5,17.3,N/A,,Light Drizzle,160,2013-03-12 16:35:00
12:55 PM,45.0,41.4,87,29.84,10.0,South,11.5,16.1,N/A,,Drizzle,170,2013-03-12 16:55:00
1:15 PM,45.1,41.5,87,29.83,10.0,South,8.1,-,N/A,,Drizzle,170,2013-03-12 17:15:00
1:35 PM,45.0,41.7,88,29.82,10.0,South,8.1,-,N/A,Rain,Rain,180,2013-03-12 17:35:00
1:55 PM,45.1,41.9,88,29.81,10.0,South,10.4,-,N/A,Rain,Light Rain,170,2013-03-12 17:55:00
2:15 PM,45.5,42.1,88,29.80,10.0,SSE,11.5,17.3,N/A,Rain,Light Rain,160,2013-03-12 18:15:00
2:35 PM,45.7,42.3,88,29.80,10.0,SSE,13.8,19.6,N/A,Rain,Rain,160,2013-03-12 18:35:00
2:55 PM,45.9,42.4,88,29.79,10.0,SSE,12.7,17.3,N/A,Rain,Light Rain,160,2013-03-12 18:55:00
3:15 PM,45.9,42.4,88,29.78,10.0,SSE,11.5,-,N/A,Rain,Rain,160,2013-03-12 19:15:00
3:35 PM,45.9,42.4,88,29.78,10.0,SSE,10.4,-,N/A,Rain,Light Rain,160,2013-03-12 19:35:00
3:55 PM,45.7,42.4,88,29.77,10.0,South,8.1,-,N/A,Rain,Light Rain,170,2013-03-12 19:55:00
4:15 PM,45.7,42.6,89,29.76,10.0,South,8.1,-,N/A,Rain,Rain,180,2013-03-12 20:15:00
4:35 PM,45.7,42.8,90,29.76,7.0,South,6.9,16.1,N/A,Rain,Rain,180,2013-03-12 20:35:00
4:55 PM,45.5,42.4,89,29.75,7.0,South,5.8,-,N/A,Rain,Rain,190,2013-03-12 20:55:00
5:15 PM,45.1,42.4,90,29.75,5.0,South,5.8,-,N/A,Rain,Rain,180,2013-03-12 21:15:00
5:35 PM,45.0,42.3,90,29.74,7.0,South,3.5,-,N/A,Rain,Rain,170,2013-03-12 21:35:00
5:55 PM,44.6,41.9,90,29.73,7.0,SSE,3.5,-,N/A,Rain,Light Rain,160,2013-03-12 21:55:00
6:15 PM,44.4,41.9,91,29.72,7.0,Calm,Calm,-,N/A,Rain,Rain,0,2013-03-12 22:15:00
6:35 PM,44.6,42.1,91,29.72,7.0,SSW,3.5,-,N/A,Rain,Rain,210,2013-03-12 22:35:00
6:55 PM,43.3,40.8,91,29.71,7.0,SW,3.5,-,N/A,Rain,Rain,230,2013-03-12 22:55:00
7:15 PM,44.2,41.9,91,29.70,7.0,Calm,Calm,-,N/A,Rain,Light Rain,0,2013-03-12 23:15:00
7:35 PM,44.1,41.9,92,29.69,7.0,West,4.6,-,N/A,Rain,Rain,260,2013-03-12 23:35:00
7:55 PM,44.2,42.1,92,29.70,5.0,SW,5.8,-,N/A,Rain,Rain,230,2013-03-12 23:55:00
8:15 PM,44.6,42.3,91,29.71,4.0,WNW,10.4,-,N/A,Rain,Rain,300,2013-03-13 00:15:00
8:35 PM,39.4,36.7,90,29.72,5.0,West,12.7,-,N/A,Rain,Rain,280,2013-03-13 00:35:00
8:55 PM,37.8,34.9,89,29.73,7.0,WNW,11.5,18.4,N/A,Rain,Rain,290,2013-03-13 00:55:00
9:15 PM,37.6,34.5,89,29.74,7.0,WNW,9.2,-,N/A,Rain,Rain,290,2013-03-13 01:15:00
9:35 PM,37.2,33.8,87,29.75,5.0,NW,8.1,-,N/A,,Drizzle,310,2013-03-13 01:35:00
9:55 PM,36.7,33.3,87,29.76,5.0,WNW,6.9,-,N/A,,Drizzle,300,2013-03-13 01:55:00
10:15 PM,36.3,32.9,87,29.76,4.0,NNW,4.6,-,N/A,Rain,Rain,330,2013-03-13 02:15:00
10:35 PM,35.2,32.2,89,29.77,5.0,NNW,4.6,-,N/A,Rain,Light Rain,340,2013-03-13 02:35:00
10:55 PM,34.9,32.0,89,29.77,4.0,North,3.5,-,N/A,Rain,Light Rain,350,2013-03-13 02:55:00
11:15 PM,34.7,32.0,90,29.78,5.0,Calm,Calm,-,N/A,Rain,Rain,0,2013-03-13 03:15:00
11:35 PM,34.0,32.0,92,29.78,7.0,Calm,Calm,-,N/A,Rain,Rain,0,2013-03-13 03:35:00
11:55 PM,34.0,32.0,92,29.79,5.0,Calm,Calm,-,N/A,Rain,Light Rain,0,2013-03-13 03:55:00